Cairo, Egypt

12:14 AM EET on August 18, 2017 (GMT +0200)
Cairo International Airport

Weather History for HECA - June, 2013

Change the Weather History Date:

Sunday, June 23, 2013

  Actual Average Record
Temperature  
Mean Temperature 85 °F -  
Max Temperature 95 °F 92 °F 102 °F (2010)
Min Temperature 75 °F 71 °F 68 °F (1998)
Cooling Degree Days 20    
Growing Degree Days 35 (Base 50)    
Moisture  
Dew Point 64 °F    
Average Humidity 55    
Maximum Humidity 83    
Minimum Humidity 15    
Precipitation  
Precipitation 0.00 in 0.00 in - ()
Sea Level Pressure  
Sea Level Pressure 29.78 in    
Wind  
Wind Speed 7 mph ()    
Max Wind Speed 16 mph    
Max Gust Speed -    
Visibility 3.8 miles    
Events      
Averages and records for this station are not official NWS values.
T = Trace of Precipitation, MM = Missing Value Source: Averaged Metar Reports

Daily Weather History Graph

Daily Weather History Graph

Search for Another Location

Airport or City:

Trip Planner

Search our weather history database for the weather conditions in past years. The results will help you decide how hot, cold, wet, or windy it might be!

Date:

Astronomy

Jun. 23, 2013 Rise Set
Actual Time 4:53 AM EET 6:59 PM EET
Civil Twilight 4:26 AM EET 7:26 PM EET
Nautical Twilight 3:53 AM EET 8:00 PM EET
Astronomical Twilight 3:17 AM EET 8:36 PM EET
Moon 6:58 PM EET (6/23) 4:44 AM EET (6/23)
Length of Visible Light 15h 00m
Length of Day
14h 05m
Full, 100% of the Moon is Illuminated
Jun 23
Full
Jun 23
Full
Jun 30
Last Quarter
Jul 8
New
Jul 16
First Quarter

Hourly Weather History & Observations

Time (EET) Temp. Heat Index Dew Point Humidity Pressure Visibility Wind Dir Wind Speed Gust Speed Precip Events Conditions
12:00 AM 78.8 °F - 69.8 °F 74% 29.77 in - NE 10.4 mph - N/A   Clear
12:30 AM 78.8 °F - 69.8 °F 74% 29.77 in - NNE 9.2 mph - N/A   Clear
1:00 AM 78.8 °F - 69.8 °F 74% 29.77 in - NNE 8.1 mph - N/A   Clear
1:30 AM 78.8 °F - 69.8 °F 74% 29.77 in - NNE 8.1 mph - N/A   Clear
2:00 AM 77 °F - 69 °F 68% 29.78 in 6 mi NNE 5.8 mph - -  
2:00 AM 77.0 °F - 68.0 °F 74% 29.77 in - NNE 5.8 mph - N/A   Clear
2:30 AM 77.0 °F - 68.0 °F 74% 29.77 in - NNE 5.8 mph - N/A   Clear
3:00 AM 77.0 °F - 68.0 °F 74% 29.77 in - NE 5.8 mph - N/A   Clear
3:30 AM 77.0 °F - 68.0 °F 74% 29.77 in - NE 5.8 mph - N/A   Clear
4:00 AM 75.2 °F - 68.0 °F 78% 29.77 in - NE 4.6 mph - N/A   Clear
4:30 AM 75.2 °F - 68.0 °F 78% 29.77 in - NE 4.6 mph - N/A   Clear
5:00 AM 75.2 °F - 69.8 °F 83% 29.77 in 3.7 mi North 5.8 mph - N/A   Unknown
5:30 AM 75.2 °F - 69.8 °F 83% 29.77 in 2.5 mi North 5.8 mph - N/A   Mist
6:00 AM 75.2 °F - 69.8 °F 83% 29.77 in 2.5 mi North 5.8 mph - N/A   Mist
6:30 AM 75.2 °F - 69.8 °F 83% 29.80 in 2.5 mi NW 5.8 mph - N/A   Mist
7:00 AM 75.2 °F - 69.8 °F 83% 29.80 in 2.5 mi WNW 5.8 mph - N/A   Mist
7:30 AM 77.0 °F - 69.8 °F 78% 29.80 in 2.5 mi NW 5.8 mph - N/A   Mist
8:00 AM 78 °F - 71 °F 74% 29.81 in 2 mi North 3.5 mph - -   Mist
8:00 AM 77.0 °F - 71.6 °F 83% 29.80 in 2.5 mi North 3.5 mph - N/A   Mist
8:30 AM 80.6 °F 84.6 °F 71.6 °F 74% 29.80 in 2.5 mi NNW 3.5 mph - N/A   Mist
9:00 AM 82.4 °F 86.3 °F 69.8 °F 66% 29.80 in 2.5 mi North 4.6 mph - N/A   Mist
9:30 AM 84.2 °F 88.4 °F 69.8 °F 62% 29.80 in 1.9 mi ENE 2.3 mph - N/A   Haze
10:00 AM 84.2 °F 88.4 °F 69.8 °F 62% 29.80 in 1.9 mi ENE 2.3 mph - N/A   Haze
10:30 AM 86.0 °F 88.2 °F 66.2 °F 51% 29.80 in 2.5 mi SSW 3.5 mph - N/A   Haze
11:00 AM 89.6 °F 91.1 °F 64.4 °F 43% 29.80 in 2.5 mi WNW 4.6 mph - N/A   Haze
11:30 AM 91.4 °F 92.1 °F 62.6 °F 38% 29.80 in 2.5 mi WNW 2.3 mph - N/A   Haze
12:00 PM 91.4 °F 90.7 °F 59.0 °F 34% 29.80 in 3.7 mi North 10.4 mph - N/A   Unknown
12:30 PM 93.2 °F 91.3 °F 55.4 °F 28% 29.77 in 3.7 mi North 3.5 mph - N/A   Unknown
1:00 PM 93.2 °F 91.3 °F 55.4 °F 28% 29.77 in - North 3.5 mph - N/A   Clear
1:30 PM 95.0 °F - 51.8 °F 23% 29.77 in - NW 11.5 mph - N/A   Clear
2:00 PM 95 °F - 53 °F 15% 29.76 in 6 mi NW 8.1 mph - -   Scattered Clouds
2:00 PM 95.0 °F 92.7 °F 53.6 °F 25% 29.77 in 6.2 mi NW 8.1 mph - N/A   Partly Cloudy
2:30 PM 95.0 °F 92.7 °F 53.6 °F 25% 29.77 in 6.2 mi NW 8.1 mph - N/A   Partly Cloudy
3:00 PM 95.0 °F - 50.0 °F 22% 29.74 in 6.2 mi NW 8.1 mph - N/A   Partly Cloudy
3:30 PM 95.0 °F - 51.8 °F 23% 29.74 in 6.2 mi WNW 12.7 mph - N/A   Partly Cloudy
4:00 PM 95.0 °F 93.0 °F 55.4 °F 26% 29.74 in 6.2 mi NNW 8.1 mph - N/A   Partly Cloudy
4:30 PM 95.0 °F - 51.8 °F 23% 29.74 in 6.2 mi NW 12.7 mph - N/A   Partly Cloudy
5:00 PM 95.0 °F 93.7 °F 57.2 °F 28% 29.77 in - NW 11.5 mph - N/A   Clear
5:30 PM 93.2 °F 91.9 °F 57.2 °F 30% 29.74 in - NW 11.5 mph - N/A   Clear
6:00 PM 93.2 °F 92.6 °F 59.0 °F 32% 29.74 in - NW 12.7 mph - N/A   Clear
6:30 PM 89.6 °F 91.1 °F 64.4 °F 43% 29.77 in - NW 15.0 mph - N/A   Clear
7:00 PM 89.6 °F 92.2 °F 66.2 °F 46% 29.77 in - NW 12.7 mph - N/A   Clear
7:30 PM 87.8 °F 90.4 °F 66.2 °F 49% 29.77 in - NNW 12.7 mph - N/A   Clear
8:00 PM 88 °F - 68 °F 42% 29.78 in 6 mi NNW 16.1 mph - -  
8:00 PM 87.8 °F 91.4 °F 68.0 °F 52% 29.77 in - NNW 16.1 mph - N/A   Clear
8:30 PM 86.0 °F 90.4 °F 69.8 °F 58% 29.80 in - NNW 15.0 mph - N/A   Clear
9:00 PM 84.2 °F 87.3 °F 68.0 °F 58% 29.80 in - NNW 15.0 mph - N/A   Clear
9:30 PM 84.2 °F 87.3 °F 68.0 °F 58% 29.80 in - NNW 15.0 mph - N/A   Clear
10:00 PM 82.4 °F 83.9 °F 64.4 °F 54% 29.80 in - NNW 11.5 mph - N/A   Clear
10:30 PM 80.6 °F 82.3 °F 64.4 °F 58% 29.80 in - NNW 11.5 mph - N/A   Clear
11:00 PM 80.6 °F 81.8 °F 62.6 °F 54% 29.80 in - North 6.9 mph - N/A   Clear
11:30 PM 78.8 °F - 64.4 °F 61% 29.80 in - North 6.9 mph - N/A   Clear